Wind_Speed
10 9 10 9 9 9 10 11 11 11 11 11 11 12 12 11 11 10 11 11 12 11 11 11 11 9 8 9 10 9 11 15 20 24 28 33 37 36 34 32 31 27 28 24 21 18 14
10 9 10 10 10 10 10 11 11 11 12 13 15 16 17 17 18 18 18 19 19 19 18 18 18 17 15 15 16 13 13 12 13 17 24 29 34 36 35 34 34 33 29 30 27 21 18
9 8 9 9 10 11 11 12 13 14 15 16 16 17 18 19 21 23 24 24 24 25 25 25 24 25 23 20 21 19 18 17 16 14 19 25 28 32 35 35 35 36 31 29 26 26 24
8 8 8 8 9 10 11 13 14 15 16 16 17 18 19 20 23 25 26 27 28 28 29 30 30 29 30 28 27 27 24 22 21 17 18 21 21 29 33 33 35 33 35 33 29 25 22
9 8 8 8 9 10 11 13 15 16 17 19 20 21 22 23 22 21 23 26 27 29 30 32 33 33 33 33 31 33 31 29 26 24 22 21 20 25 31 31 34 32 32 33 33 25 22
8 8 8 8 7 8 10 12 12 14 15 15 16 17 18 19 20 21 23 24 26 27 27 27 30 30 29 32 34 35 37 35 32 30 28 24 24 26 26 28 31 34 34 34 34 32 21
5 4 3 4 5 7 8 8 9 10 11 12 14 14 15 15 17 19 20 23 25 27 28 28 29 30 30 30 30 33 35 39 38 35 33 32 29 28 23 25 27 30 34 36 36 38 37
4 2 1 2 4 5 7 8 9 10 12 14 15 17 20 21 20 22 23 23 26 26 27 29 29 29 27 25 25 30 33 37 39 38 39 38 34 30 26 25 27 28 30 35 37 39 43
1 2 3 3 4 6 9 12 14 15 16 18 17 20 20 24 25 25 29 30 29 31 28 29 31 31 31 28 27 28 31 36 38 40 42 40 38 36 31 29 27 29 30 31 33 37 39
3 6 8 10 10 10 12 14 16 16 17 20 21 24 27 27 30 31 30 30 30 35 37 34 31 33 34 34 30 30 32 35 38 40 42 41 42 40 36 32 30 30 31 30 31 36 39
8 9 12 14 16 16 15 18 17 19 21 23 26 29 27 29 32 33 34 36 32 39 39 41 38 33 36 34 29 31 30 33 35 41 43 42 43 43 41 40 36 32 30 31 31 35 36
13 12 12 14 16 18 21 22 24 26 27 28 31 35 36 38 35 35 38 40 39 43 44 43 44 39 35 35 31 32 29 28 27 34 42 42 41 43 45 42 40 35 33 32 34 33 32
19 19 20 21 23 24 25 28 31 33 35 36 38 41 43 43 37 42 44 44 45 45 48 44 43 44 40 36 33 33 28 27 26 27 35 40 45 44 43 42 43 40 39 39 35 32 30
25 27 28 30 31 32 33 36 38 38 39 41 43 45 47 45 44 48 48 49 48 52 50 46 47 43 45 41 35 34 29 27 27 26 27 34 42 47 47 48 47 44 43 43 40 38 35
29 30 32 34 35 37 39 41 41 42 44 46 47 47 49 50 51 53 52 50 55 56 53 49 49 50 47 46 38 34 32 27 25 23 25 28 35 41 47 49 49 47 46 44 42 43 40
34 35 36 39 40 42 45 46 47 48 50 52 53 53 55 56 56 57 55 53 59 59 55 49 48 52 51 48 41 36 33 30 26 20 18 22 26 35 42 47 47 47 44 45 44 42 41
37 38 41 42 45 47 48 51 54 54 54 56 57 60 60 60 58 57 58 57 62 60 56 49 46 49 55 50 45 37 34 31 31 23 19 17 19 24 32 41 44 43 43 43 40 41 42
41 43 44 46 48 50 53 55 56 58 59 63 63 65 65 64 60 61 57 59 60 58 54 49 45 44 53 52 46 38 37 34 37 31 26 21 18 17 19 26 33 37 38 38 38 40 41
46 47 49 51 52 54 57 61 63 66 67 67 65 62 62 63 65 63 58 58 59 56 53 47 43 42 50 53 48 42 43 40 42 39 33 26 25 22 19 19 23 26 29 30 31 32 34
52 53 56 57 59 62 64 67 68 68 67 65 66 65 66 68 67 63 62 64 59 54 51 44 43 44 47 54 52 45 47 44 40 44 40 35 33 29 25 23 24 25 27 32 36 39 40
59 61 63 65 68 68 70 71 69 67 65 67 70 71 71 69 67 67 67 63 55 51 47 40 41 41 49 57 57 51 48 48 44 43 48 43 40 37 33 28 24 26 28 28 30 32 33
65 67 68 68 70 70 71 70 68 66 69 72 75 75 74 69 65 67 67 55 48 48 42 36 40 39 47 59 58 54 51 51 49 45 45 44 43 42 40 33 30 30 28 28 29 33 32
68 71 72 72 71 70 70 70 70 71 75 78 79 77 73 70 69 68 59 49 44 42 35 37 39 40 44 54 59 58 54 55 51 44 44 45 45 45 41 36 33 32 33 32 30 30 34
72 70 69 68 69 69 70 73 76 79 82 81 82 77 74 73 67 60 48 45 42 39 36 38 38 41 47 50 60 62 59 58 55 50 46 46 44 43 41 38 36 35 33 32 31 32 35
66 63 65 67 70 73 76 79 83 86 87 86 82 74 70 64 56 44 44 41 41 36 37 39 38 41 47 52 60 65 62 60 56 53 51 50 45 42 39 37 34 33 32 28 30 34 34
64 67 69 74 77 80 82 86 89 88 85 81 72 62 54 49 41 40 41 38 36 37 37 39 36 41 45 51 60 65 62 58 57 55 53 53 50 42 40 37 32 33 28 30 31 30 29
70 74 78 79 82 86 87 93 87 78 71 64 56 46 42 40 36 41 38 35 35 36 37 38 37 38 43 45 52 64 64 60 57 57 57 56 51 44 43 39 35 33 29 29 31 31 29
77 80 82 83 88 89 91 87 74 63 57 51 44 41 40 39 34 39 35 33 38 38 38 37 36 36 40 45 47 59 64 62 60 57 58 56 49 43 42 40 38 36 33 31 31 29 30
83 83 86 89 92 95 81 71 61 56 49 42 39 39 41 40 34 38 32 36 37 37 36 35 32 36 39 43 48 50 63 62 61 59 57 54 48 44 43 42 40 39 34 34 31 31 32
Wind_Direction
240 244 238 239 244 247 252 258 259 263 264 265 270 275 273 272 272 276 281 285 288 279 279 280 276 267 265 278 263 260 260 252 245 241 238 235 231 228 229 232 233 232 231 226 228 224 250
240 248 246 247 255 258 263 265 266 267 270 272 270 269 271 272 273 273 272 273 276 278 278 278 282 281 279 281 273 271 267 263 253 241 238 237 234 235 230 229 230 229 228 232 233 231 220
242 247 251 256 260 262 268 271 271 272 274 277 276 275 274 274 273 272 272 272 272 271 272 272 272 275 274 274 277 274 270 269 260 248 240 240 237 238 234 232 229 229 227 227 234 238 239
245 246 254 262 267 273 275 275 277 276 278 281 281 282 280 281 281 276 272 271 272 272 272 270 270 269 270 270 267 271 268 264 261 259 248 247 239 238 236 231 235 233 230 231 226 238 243
244 250 254 263 267 271 275 277 279 282 286 287 286 285 284 283 284 285 281 277 276 276 273 272 271 267 267 266 262 266 264 262 261 257 253 251 242 240 238 234 231 225 229 228 230 233 230
253 258 267 276 278 279 282 289 294 297 298 299 301 303 305 305 303 297 293 291 286 278 274 274 274 272 269 266 263 260 261 260 258 254 252 249 247 245 242 233 236 229 228 227 228 217 218
250 247 252 273 291 307 315 319 324 329 330 330 329 331 333 333 329 325 316 304 298 293 281 274 278 275 270 265 263 261 258 259 256 253 253 247 245 246 245 236 230 233 233 230 227 223 221
231 231 268 344 4 355 341 332 326 325 327 322 318 318 317 315 318 313 304 304 307 301 297 286 279 279 271 265 263 261 258 256 254 253 249 248 245 245 238 235 230 229 228 232 230 231 229
233 234 249 274 320 332 332 329 322 319 319 324 312 316 312 311 315 321 315 300 295 291 289 290 283 276 271 268 268 261 260 258 252 248 248 248 247 244 238 234 230 227 228 228 229 232 231
313 282 280 278 278 294 317 316 313 305 307 315 318 313 309 308 314 314 304 311 301 296 286 277 279 277 271 268 269 270 264 256 253 250 247 244 242 242 238 236 232 226 227 228 227 230 226
288 285 284 280 276 288 301 306 306 305 303 306 310 308 305 307 310 309 303 303 298 297 299 279 266 266 273 269 265 266 263 263 253 249 247 241 240 237 235 233 231 228 227 227 229 233 231
288 292 296 303 292 295 300 303 304 304 303 303 304 305 308 311 312 304 300 304 301 295 292 277 268 258 264 264 261 262 262 270 257 253 247 242 239 235 233 233 232 231 229 229 233 235 233
288 286 288 290 291 291 295 299 299 299 301 304 305 305 307 310 303 301 305 303 295 294 287 274 264 259 256 260 259 258 260 269 266 264 245 238 236 235 235 233 232 233 233 233 233 235 236
292 285 284 288 292 292 293 294 298 300 301 302 303 304 304 303 301 303 301 301 292 289 287 281 259 252 249 250 251 254 255 258 264 271 249 239 235 232 230 227 230 231 233 236 236 238 239
291 287 286 287 289 295 298 298 297 300 301 303 304 303 303 300 300 301 301 299 294 294 289 278 265 249 242 246 244 243 250 247 253 266 250 242 235 232 229 229 228 229 232 235 237 238 239
295 292 292 291 293 294 295 296 297 299 301 302 303 301 303 299 299 300 302 298 295 298 290 277 266 252 242 237 240 234 240 241 239 250 252 244 239 233 228 227 230 232 233 235 238 240 242
294 292 291 292 293 294 296 297 299 300 301 302 303 303 302 300 300 304 304 301 298 297 292 283 266 255 244 232 233 233 235 232 230 230 237 237 234 232 226 225 227 229 232 236 239 244 245
296 296 296 297 297 297 298 298 299 300 301 301 301 300 300 299 302 305 302 300 298 296 291 283 265 248 240 230 224 223 227 227 224 224 229 230 224 221 217 224 230 236 241 244 244 244 244
299 298 298 298 298 298 299 301 300 299 299 298 301 303 301 301 302 303 300 303 297 294 289 280 265 244 229 224 217 216 221 224 223 220 223 225 232 227 218 223 232 235 237 239 239 242 243
298 296 296 297 297 296 295 297 297 296 297 298 300 302 301 302 303 301 301 300 297 293 288 277 256 244 221 218 212 211 218 223 221 225 219 221 224 229 230 231 238 242 244 245 246 247 247
296 296 296 296 296 296 295 295 295 295 297 299 302 302 301 303 300 299 302 299 293 289 284 267 251 236 217 216 208 207 214 218 221 221 226 221 227 228 233 239 246 250 245 242 244 244 245
294 294 294 294 295 294 294 295 294 294 298 300 301 300 300 299 299 298 302 294 290 287 272 252 240 227 219 213 209 204 208 214 218 220 225 226 226 231 232 237 242 249 251 251 249 248 249
293 293 294 294 294 294 294 293 293 295 298 299 302 301 299 299 299 299 298 289 286 278 256 241 230 221 218 215 207 204 204 213 219 219 223 226 225 230 234 238 242 246 251 249 250 252 251
292 294 294 295 296 296 295 294 294 295 297 300 300 298 295 296 296 297 289 286 283 264 238 231 225 221 217 215 208 203 204 212 215 218 221 226 226 230 234 241 240 243 249 248 255 253 253
293 293 293 295 296 297 297 298 297 296 297 299 298 296 293 291 293 288 282 283 276 247 231 227 222 221 218 214 210 205 204 211 215 216 218 223 224 227 228 232 240 241 245 256 257 257 259
292 293 295 295 297 298 298 299 298 297 297 297 297 294 288 287 286 283 282 281 257 234 227 226 220 220 221 218 212 207 205 210 216 220 220 223 224 221 230 232 236 242 248 253 258 259 263
291 293 295 297 299 300 299 301 301 298 297 297 295 289 284 282 285 285 280 269 239 229 227 225 223 221 221 220 217 207 205 209 215 220 224 225 226 226 230 234 235 242 244 252 257 260 265
292 295 297 297 299 302 301 302 300 297 296 292 288 285 283 283 287 281 275 247 224 226 224 226 220 220 221 217 215 211 206 209 215 220 224 227 228 231 235 233 234 239 243 247 255 263 270
294 296 296 299 300 302 301 298 297 295 293 287 283 282 283 283 284 276 260 228 221 226 226 226 220 223 220 216 211 210 211 211 215 220 225 230 232 233 236 234 238 239 243 248 257 266 271
Height
10917 10917 10918 10919 10920 10920 10921 10922 10923 10924 10925 10925 10926 10926 10926 10926 10926 10926 10926 10926 10925 10925 10924 10923 10922 10922 10923 10922 10920 10919 10918 10918 10920 10922 10923 10925 10927 10931 10936 10941 10943 10947 10948 10952 10954 10957 10957
10915 10916 10917 10917 10918 10919 10919 10920 10920 10921 10922 10922 10923 10923 10924 10924 10924 10924 10923 10923 10923 10922 10922 10921 10920 10919 10919 10919 10917 10917 10916 10916 10917 10918 10918 10918 10921 10926 10931 10934 10937 10940 10945 10947 10950 10953 10954
10914 10915 10915 10916 10916 10916 10917 10917 10917 10918 10918 10919 10919 10920 10920 10920 10920 10920 10919 10919 10919 10918 10918 10917 10917 10916 10915 10916 10913 10913 10913 10913 10913 10914 10914 10913 10918 10918 10922 10928 10929 10935 10939 10942 10945 10947 10950
10912 10913 10913 10913 10914 10914 10914 10914 10914 10915 10915 10915 10915 10915 10915 10915 10915 10914 10914 10913 10913 10913 10912 10911 10911 10910 10910 10910 10909 10908 10908 10908 10909 10910 10911 10910 10913 10912 10915 10921 10924 10929 10932 10936 10941 10942 10945
10910 10910 10910 10911 10911 10911 10911 10911 10911 10911 10911 10911 10910 10910 10910 10910 10909 10909 10908 10908 10907 10906 10905 10904 10903 10903 10903 10902 10904 10902 10902 10903 10904 10906 10906 10907 10909 10908 10910 10915 10918 10922 10925 10930 10935 10939 10940
10907 10908 10908 10908 10908 10908 10908 10908 10908 10907 10907 10907 10906 10905 10905 10905 10904 10904 10903 10903 10900 10899 10898 10897 10896 10896 10896 10894 10895 10896 10894 10896 10898 10899 10901 10903 10903 10904 10908 10911 10912 10916 10920 10924 10929 10934 10936
10905 10905 10906 10906 10906 10906 10905 10905 10904 10904 10903 10903 10902 10901 10900 10900 10899 10898 10897 10896 10893 10892 10891 10891 10889 10888 10889 10887 10887 10887 10887 10887 10889 10892 10894 10895 10898 10900 10905 10907 10908 10909 10913 10916 10922 10927 10930
10904 10904 10904 10904 10904 10904 10903 10902 10902 10901 10900 10899 10898 10897 10896 10894 10894 10893 10892 10890 10886 10885 10885 10883 10882 10880 10880 10880 10881 10879 10879 10878 10880 10884 10884 10886 10891 10895 10899 10901 10904 10905 10907 10910 10915 10918 10923
10902 10902 10902 10902 10902 10901 10900 10899 10899 10898 10896 10895 10894 10893 10891 10889 10888 10887 10885 10883 10878 10877 10876 10874 10873 10873 10871 10872 10873 10872 10871 10869 10871 10873 10874 10880 10883 10886 10892 10896 10899 10901 10902 10904 10908 10910 10919
10900 10900 10899 10899 10898 10897 10896 10895 10894 10893 10892 10890 10888 10886 10885 10884 10882 10880 10877 10875 10871 10868 10867 10865 10864 10863 10863 10863 10864 10863 10862 10861 10862 10864 10866 10870 10873 10878 10884 10889 10893 10895 10897 10900 10901 10902 10911
10897 10896 10895 10894 10893 10893 10892 10890 10889 10887 10886 10884 10882 10879 10878 10877 10876 10871 10867 10865 10863 10858 10856 10854 10854 10853 10852 10853 10856 10854 10854 10852 10853 10852 10854 10860 10863 10868 10874 10878 10883 10888 10891 10893 10895 10897 10905
10893 10892 10891 10890 10888 10887 10885 10883 10881 10879 10877 10876 10874 10870 10869 10866 10866 10860 10856 10854 10851 10847 10842 10841 10843 10845 10843 10843 10847 10845 10845 10844 10844 10842 10845 10850 10855 10858 10863 10870 10876 10881 10884 10886 10888 10894 10899
10888 10886 10884 10883 10882 10880 10878 10875 10873 10871 10868 10867 10864 10860 10856 10856 10851 10847 10843 10840 10837 10831 10829 10828 10831 10833 10833 10832 10836 10836 10836 10835 10835 10833 10836 10839 10843 10849 10856 10862 10867 10872 10876 10879 10883 10888 10892
10882 10880 10878 10876 10874 10872 10869 10867 10865 10862 10858 10857 10854 10850 10845 10841 10838 10833 10829 10826 10820 10814 10815 10816 10817 10817 10820 10820 10824 10827 10829 10828 10828 10826 10827 10830 10833 10838 10843 10849 10855 10861 10867 10871 10877 10881 10885
10875 10873 10870 10868 10865 10863 10861 10858 10855 10852 10848 10844 10842 10838 10832 10827 10823 10819 10815 10810 10800 10797 10799 10800 10800 10802 10806 10808 10813 10818 10821 10822 10822 10820 10820 10821 10824 10828 10833 10839 10845 10851 10857 10863 10869 10873 10878
10866 10864 10862 10859 10856 10853 10850 10847 10844 10842 10837 10832 10829 10825 10820 10812 10808 10803 10799 10791 10781 10782 10778 10783 10785 10787 10791 10796 10801 10808 10812 10815 10816 10815 10814 10815 10817 10820 10825 10830 10838 10844 10850 10854 10860 10866 10869
10856 10853 10851 10848 10845 10842 10838 10834 10831 10829 10824 10819 10816 10810 10804 10796 10792 10788 10781 10774 10765 10763 10759 10763 10768 10770 10774 10784 10790 10799 10805 10808 10809 10810 10811 10811 10812 10814 10818 10824 10830 10836 10840 10846 10853 10856 10858
10845 10842 10839 10837 10833 10829 10825 10821 10816 10812 10809 10804 10801 10795 10788 10780 10776 10771 10764 10756 10748 10746 10743 10743 10747 10751 10757 10770 10780 10787 10793 10798 10800 10804 10806 10809 10810 10811 10814 10818 10824 10830 10836 10840 10843 10844 10848
10834 10830 10827 10823 10820 10815 10810 10806 10801 10796 10791 10787 10783 10779 10771 10764 10758 10753 10747 10740 10731 10728 10725 10725 10728 10733 10742 10756 10765 10775 10781 10785 10790 10796 10800 10804 10805 10808 10812 10816 10819 10823 10826 10830 10834 10837 10839
10820 10817 10813 10809 10806 10800 10795 10789 10783 10778 10773 10767 10763 10761 10756 10745 10739 10735 10729 10722 10713 10711 10707 10708 10708 10716 10729 10739 10750 10761 10767 10775 10780 10786 10792 10796 10798 10801 10806 10811 10814 10817 10820 10822 10824 10827 10830
10807 10802 10797 10792 10787 10782 10777 10771 10765 10760 10755 10748 10744 10738 10733 10730 10723 10712 10708 10703 10696 10692 10689 10690 10693 10702 10714 10722 10735 10746 10755 10762 10770 10775 10780 10787 10790 10795 10799 10804 10807 10809 10812 10815 10817 10818 10820
10790 10785 10780 10775 10769 10763 10758 10751 10745 10741 10735 10729 10723 10718 10712 10707 10703 10696 10690 10680 10679 10673 10672 10675 10679 10690 10699 10705 10722 10734 10742 10749 10757 10764 10769 10775 10783 10786 10790 10796 10800 10802 10804 10806 10809 10810 10813
10772 10766 10760 10755 10749 10744 10738 10732 10726 10721 10716 10706 10701 10695 10688 10686 10681 10675 10669 10663 10660 10657 10659 10662 10669 10678 10685 10695 10709 10720 10729 10738 10746 10753 10759 10764 10772 10776 10782 10789 10793 10795 10795 10798 10801 10803 10803
10752 10746 10740 10735 10729 10724 10718 10712 10705 10699 10694 10687 10679 10673 10667 10663 10660 10654 10648 10645 10644 10642 10646 10651 10658 10665 10673 10683 10696 10706 10716 10725 10733 10740 10748 10753 10760 10768 10774 10779 10785 10786 10788 10790 10792 10794 10794
10732 10727 10722 10716 10710 10704 10697 10691 10683 10675 10668 10662 10653 10648 10643 10640 10641 10637 10631 10630 10628 10629 10634 10641 10648 10652 10662 10671 10683 10693 10704 10714 10724 10729 10735 10742 10749 10756 10764 10770 10774 10777 10779 10783 10783 10783 10783
10713 10708 10702 10696 10689 10682 10675 10667 10658 10649 10642 10636 10629 10624 10621 10620 10622 10619 10616 10614 10613 10617 10624 10631 10638 10644 10652 10661 10673 10685 10696 10706 10712 10719 10725 10730 10737 10747 10754 10761 10767 10769 10772 10772 10773 10774 10776
10694 10688 10681 10675 10666 10660 10651 10641 10632 10623 10618 10613 10607 10605 10603 10603 10607 10602 10601 10599 10602 10608 10615 10621 10628 10635 10642 10653 10664 10675 10684 10693 10701 10709 10714 10719 10729 10739 10746 10752 10757 10761 10764 10764 10764 10766 10768
10673 10667 10660 10652 10644 10636 10627 10616 10608 10601 10598 10594 10590 10590 10589 10588 10591 10586 10586 10587 10590 10597 10604 10612 10620 10627 10633 10642 10652 10664 10674 10684 10691 10697 10703 10712 10722 10732 10737 10744 10748 10751 10753 10755 10757 10758 10758
10651 10644 10636 10629 10620 10611 10602 10594 10588 10583 10579 10578 10576 10575 10574 10573 10576 10570 10572 10576 10583 10589 10597 10604 10614 10619 10624 10632 10642 10654 10665 10673 10682 10688 10695 10705 10715 10722 10729 10735 10738 10740 10743 10745 10748 10750 10749